CW3999 Weather Reports


Display with metric or nautical units.
time (UTC)temp
F
wind
direction
speed
MPH
gust
MPH
rain 1hr
in
rain 24hr
in
rain mn
in
humidity
%
barometer
mb
20260510051804 66 265 0.0 0.0 0.00 0.00 0.00 55 1013.5
20260510051303 66 265 0.0 0.0 0.00 0.00 0.00 55 1013.5
20260510050802 67 265 0.0 0.0 0.00 0.00 0.00 55 1013.5
20260510045802 67 265 0.0 0.0 0.00 0.00 0.00 54 1013.5
20260510045306 67 265 0.0 0.0 0.00 0.00 0.00 54 1013.5
20260510044804 67 265 0.0 0.0 0.00 0.00 0.00 54 1013.5
20260510044304 67 265 0.0 0.0 0.00 0.00 0.00 54 1013.6
20260510043804 67 265 0.0 0.0 0.00 0.00 0.00 54 1013.6
20260510042801 67 265 0.0 0.0 0.00 0.00 0.00 54 1013.5
20260510042305 67 265 0.0 0.0 0.00 0.00 0.00 53 1013.4
20260510041802 68 265 0.0 0.0 0.00 0.00 0.00 53 1013.4
20260510041302 68 265 0.0 0.0 0.00 0.00 0.00 52 1013.3
20260510040802 69 265 0.0 0.0 0.00 0.00 0.00 52 1013.2
20260510040303 69 265 0.0 0.0 0.00 0.00 0.00 51 1013.1
20260510035803 69 265 0.0 0.0 0.00 0.00 0.00 51 1013.0
20260510035306 69 265 0.0 0.0 0.00 0.00 0.00 49 1012.9
20260510034303 70 265 0.0 0.0 0.00 0.00 0.00 47 1012.9
20260510033804 70 265 0.0 0.0 0.00 0.00 0.00 50 1012.8
20260510033243 71 265 0.0 0.0 0.00 0.00 0.00 50 1012.8
20260510032737 71 265 0.0 0.0 0.00 0.00 0.00 49 1012.8
20260510032230 71 265 0.0 0.0 0.00 0.00 0.00 49 1012.8
20260510031731 71 265 0.0 0.0 0.00 0.00 0.00 47 1012.7
20260510031222 71 265 0.0 0.0 0.00 0.00 0.00 47 1012.7
20260510030723 72 265 0.0 0.0 0.00 0.00 0.00 47 1012.7
20260510030219 72 265 0.0 0.0 0.00 0.00 0.00 47 1012.7
20260510025717 72 265 0.0 0.0 0.00 0.00 0.00 46 1012.7
20260510025219 72 265 0.0 4.0 0.00 0.00 0.00 45 1012.6
20260510024719 72 265 0.0 4.0 0.00 0.00 0.00 45 1012.5
20260510024217 73 265 0.0 0.0 0.00 0.00 0.00 45 1012.6
20260510023720 73 265 0.0 0.0 0.00 0.00 0.00 46 1012.6
20260510023219 73 265 0.0 3.0 0.00 0.00 0.00 46 1012.5
20260510022218 73 265 4.0 9.0 0.00 0.00 0.00 46 1012.6
20260510021718 74 265 4.0 9.0 0.00 0.00 0.00 45 1012.6
20260510021219 74 265 3.0 9.0 0.00 0.00 0.00 45 1012.6
20260510020218 74 265 3.0 8.0 0.00 0.00 0.00 46 1012.6
20260510015718 75 265 4.0 8.0 0.00 0.00 0.00 45 1012.5
20260510015218 75 265 3.0 8.0 0.00 0.00 0.00 46 1012.6
20260510014718 75 265 1.0 7.0 0.00 0.00 0.00 46 1012.6
20260510014215 75 265 1.0 6.0 0.00 0.00 0.00 46 1012.6
20260510013709 75 265 3.0 7.0 0.00 0.00 0.00 45 1012.7
20260510013211 76 265 4.0 8.0 0.00 0.00 0.00 45 1012.8
20260510012707 76 265 2.0 8.0 0.00 0.00 0.00 44 1012.7
20260510012207 76 265 2.0 9.0 0.00 0.00 0.00 44 1012.7
20260510011201 77 265 3.0 9.0 0.00 0.00 0.00 46 1012.7
20260510010703 77 265 3.0 8.0 0.00 0.00 0.00 42 1012.8
20260510010202 77 265 4.0 8.0 0.00 0.00 0.00 44 1012.8
20260510005701 77 265 4.0 8.0 0.00 0.00 0.00 43 1012.9
20260510005202 77 265 3.0 7.0 0.00 0.00 0.00 44 1012.9
20260510004703 78 265 3.0 7.0 0.00 0.00 0.00 45 1013.0
20260510004204 78 265 1.0 7.0 0.00 0.00 0.00 44 1012.9
20260510003202 78 265 1.0 4.0 0.00 0.00 0.00 41 1013.0
20260510002701 78 265 2.0 6.0 0.00 0.00 0.00 40 1013.0
20260510002202 78 265 2.0 7.0 0.00 0.00 0.00 40 1013.0
20260510001702 78 265 1.0 7.0 0.00 0.00 0.00 39 1013.0
20260510001202 78 265 0.0 0.0 0.00 0.00 0.00 36 1013.0
20260510000204 78 265 1.0 7.0 0.00 0.00 0.00 33 1013.1
20260509235703 79 265 1.0 7.0 0.00 0.00 0.00 33 1013.2
20260509235203 79 265 0.0 0.0 0.00 0.00 0.00 31 1013.2
20260509234702 79 265 0.0 0.0 0.00 0.00 0.00 29 1013.2
20260509233703 80 265 0.0 0.0 0.00 0.00 0.00 36 1013.3
20260509232702 80 265 0.0 0.0 0.00 0.00 0.00 39 1013.4
20260509232203 80 265 0.0 0.0 0.00 0.00 0.00 35 1013.4
20260509231702 80 265 0.0 0.0 0.00 0.00 0.00 38 1013.5
20260509231202 80 265 0.0 4.0 0.00 0.00 0.00 37 1013.7
20260509230202 79 265 1.0 7.0 0.00 0.00 0.00 35 1013.8
20260509225703 78 265 2.0 8.0 0.00 0.00 0.00 37 1013.9
20260509224701 78 265 0.0 0.0 0.00 0.00 0.00 38 1014.1
20260509224202 78 265 0.0 0.0 0.00 0.00 0.00 38 1014.1
20260509222635 77 265 3.0 8.0 0.00 0.00 0.00 40 1014.5
20260509222135 77 265 3.0 8.0 0.00 0.00 0.00 39 1014.6
20260509221635 77 265 2.0 8.0 0.00 0.00 0.00 41 1014.7
20260509221135 77 265 2.0 10.0 0.00 0.00 0.00 40 1014.9
20260509220630 77 265 4.0 10.0 0.00 0.00 0.00 42 1015.0
20260509220131 77 265 2.0 10.0 0.00 0.00 0.00 41 1015.1
20260509215631 76 265 1.0 8.0 0.00 0.00 0.00 45 1015.2
20260509214623 76 265 2.0 9.0 0.00 0.00 0.00 45 1015.2
20260509214122 75 265 4.0 9.0 0.00 0.00 0.00 46 1015.3
20260509213622 75 265 3.0 9.0 0.00 0.00 0.00 46 1015.4
20260509213122 75 265 2.0 10.0 0.00 0.00 0.00 46 1015.4
20260509212622 75 265 4.0 11.0 0.00 0.00 0.00 45 1015.4
20260509212123 75 265 4.0 11.0 0.00 0.00 0.00 47 1015.5
20260509211623 75 263 3.0 9.0 0.00 0.00 0.00 48 1015.6
20260509211122 75 263 2.0 8.0 0.00 0.00 0.00 50 1015.6
20260509210123 74 263 3.0 10.0 0.00 0.00 0.00 48 1015.9
20260509205119 73 263 3.0 11.0 0.00 0.00 0.00 52 1015.8
20260509204618 73 263 4.0 11.0 0.00 0.00 0.00 52 1015.8
20260509204117 73 261 4.0 11.0 0.00 0.00 0.00 52 1015.9
20260509203618 73 261 3.0 9.0 0.00 0.00 0.00 51 1015.9
20260509203118 72 261 3.0 10.0 0.00 0.00 0.00 51 1016.0
20260509202119 72 261 2.0 9.0 0.00 0.00 0.00 53 1016.2
20260509201119 72 259 3.0 10.0 0.00 0.00 0.00 51 1016.4
20260509200117 72 258 4.0 10.0 0.00 0.00 0.00 53 1016.4
20260509195618 72 257 3.0 9.0 0.00 0.00 0.00 51 1016.6
20260509195119 72 257 2.0 9.0 0.00 0.00 0.00 52 1016.8
20260509193619 70 257 2.0 10.0 0.00 0.00 0.00 53 1017.0
20260509193123 69 257 1.0 10.0 0.00 0.00 0.00 53 1016.9
20260509192618 69 254 2.0 8.0 0.00 0.00 0.00 52 1017.1
20260509190618 68 254 3.0 9.0 0.00 0.00 0.00 54 1017.3
20260509190118 68 254 2.0 9.0 0.00 0.00 0.00 54 1017.4
20260509185118 68 252 3.0 9.0 0.00 0.00 0.00 53 1017.5
20260509184619 67 252 4.0 9.0 0.00 0.00 0.00 54 1017.6
20260509184118 67 250 3.0 8.0 0.00 0.00 0.00 54 1017.7
20260509183618 67 250 2.0 8.0 0.00 0.00 0.00 53 1017.8
20260509183118 67 249 0.0 7.0 0.00 0.00 0.00 54 1017.8
20260509182618 67 249 2.0 8.0 0.00 0.00 0.00 54 1017.8
20260509181619 67 248 1.0 7.0 0.00 0.00 0.00 52 1018.0
20260509181118 66 248 2.0 8.0 0.00 0.00 0.00 49 1018.0
20260509180119 65 248 0.0 8.0 0.00 0.00 0.00 50 1018.1
20260509175618 65 248 0.0 0.0 0.00 0.00 0.00 49 1018.1
20260509175119 64 248 0.0 0.0 0.00 0.00 0.00 50 1018.1
20260509174615 64 248 0.0 0.0 0.00 0.00 0.00 45 1018.2
20260509173603 64 248 2.0 7.0 0.00 0.00 0.00 47 1018.2
20260509173104 64 248 1.0 5.0 0.00 0.00 0.00 44 1018.2
20260509172603 63 248 0.0 5.0 0.00 0.00 0.00 41 1018.3
20260509172102 63 248 0.0 5.0 0.00 0.00 0.00 42 1018.4
20260509171103 62 247 0.0 0.0 0.00 0.00 0.00 35 1018.4
20260509170602 62 247 0.0 0.0 0.00 0.00 0.00 33 1018.6
20260509165600 62 247 0.0 0.0 0.00 0.00 0.00 18 1018.7
20260509165104 61 247 0.0 0.0 0.00 0.00 0.00 15 1018.8
20260509164602 60 247 0.0 0.0 0.00 0.00 0.00 7 1018.7
20260509164103 60 247 0.0 0.0 0.00 0.00 0.00 3 1018.7
20260509163601 60 247 0.0 0.0 0.00 0.00 0.00 100 1018.9
20260509162603 58 247 0.0 0.0 0.00 0.00 0.00 100 1019.0
20260509161602 57 247 0.0 0.0 0.00 0.00 0.00 100 1019.1
20260509160604 56 247 0.0 0.0 0.00 0.00 0.00 100 1019.4
20260509155603 55 247 0.0 0.0 0.00 0.00 0.00 100 1019.5
20260509155103 55 247 0.0 0.0 0.00 0.00 0.00 100 1019.5
20260509154604 55 247 0.0 0.0 0.00 0.00 0.00 100 1019.6
20260509154104 54 247 0.0 0.0 0.00 0.00 0.00 100 1019.5
20260509153102 53 247 0.0 0.0 0.00 0.00 0.00 100 1019.5
20260509151102 53 291 0.0 0.0 0.00 0.00 0.00 100 1019.8
20260509150602 52 291 0.0 0.0 0.00 0.00 0.00 100 1019.8
20260509150103 52 291 0.0 0.0 0.00 0.00 0.00 100 1019.9
20260509145603 52 291 0.0 0.0 0.00 0.00 0.00 100 1019.9
20260509145102 51 291 0.0 0.0 0.00 0.00 0.00 100 1019.9
20260509144606 51 291 0.0 0.0 0.00 0.00 0.00 100 1020.0
20260509143103 49 291 0.0 0.0 0.00 0.00 0.00 100 1019.8
20260509142604 49 291 0.0 0.0 0.00 0.00 0.00 100 1019.7
20260509141101 47 291 0.0 0.0 0.00 0.00 0.00 100 1019.8
20260509140602 47 291 0.0 0.0 0.00 0.00 0.00 100 1019.8
20260509135604 47 291 0.0 0.0 0.00 0.00 0.00 100 1019.7
20260509135104 46 291 0.0 0.0 0.00 0.00 0.00 100 1019.6
20260509134104 46 291 0.0 0.0 0.00 0.00 0.00 100 1019.7
20260509133602 45 291 0.0 0.0 0.00 0.00 0.00 100 1019.7
20260509132602 45 291 0.0 0.0 0.00 0.00 0.00 100 1019.4
20260509131601 45 291 0.0 0.0 0.00 0.00 0.00 100 1019.4
20260509131103 45 291 0.0 0.0 0.00 0.00 0.00 100 1019.5
20260509130603 45 292 0.0 0.0 0.00 0.00 0.00 100 1019.4
20260509130104 46 292 0.0 0.0 0.00 0.00 0.00 100 1019.5
20260509125602 46 291 0.0 0.0 0.00 0.00 0.00 100 1019.5
20260509125103 46 292 0.0 0.0 0.00 0.00 0.00 100 1019.5
20260509124102 46 291 0.0 0.0 0.00 0.00 0.00 100 1019.4
20260509123602 46 292 0.0 0.0 0.00 0.00 0.00 100 1019.4
20260509123102 46 291 0.0 0.0 0.00 0.00 0.00 100 1019.5
20260509122603 46 292 0.0 0.0 0.00 0.00 0.00 100 1019.6
20260509122103 46 291 0.0 0.0 0.00 0.00 0.00 100 1019.7
20260509121602 47 291 0.0 0.0 0.00 0.00 0.00 100 1019.7
20260509121102 47 292 0.0 0.0 0.00 0.00 0.00 100 1019.8
20260509120607 47 291 0.0 0.0 0.00 0.00 0.00 100 1019.7
20260509115604 47 292 0.0 0.0 0.00 0.00 0.00 100 1019.6
20260509114604 47 291 0.0 0.0 0.00 0.00 0.00 100 1019.7
20260509114103 47 291 0.0 0.0 0.00 0.00 0.00 100 1019.7
20260509113603 48 291 0.0 0.0 0.00 0.00 0.00 100 1019.8
20260509112102 48 291 0.0 0.0 0.00 0.00 0.00 100 1019.7
20260509111602 48 292 0.0 0.0 0.00 0.00 0.00 100 1019.8
20260509110604 49 291 0.0 0.0 0.00 0.00 0.00 100 1019.8
20260509110104 49 292 0.0 0.0 0.00 0.00 0.00 100 1019.9
20260509105603 49 292 0.0 0.0 0.00 0.00 0.00 100 1020.1
20260509105101 49 292 0.0 0.0 0.00 0.00 0.00 100 1020.2
20260509104602 49 292 0.0 0.0 0.00 0.00 0.00 100 1020.3
20260509104102 49 292 0.0 0.0 0.00 0.00 0.00 100 1020.2
20260509103606 50 292 0.0 0.0 0.00 0.00 0.00 100 1020.2
20260509103046 50 291 0.0 0.0 0.00 0.00 0.00 100 1020.2
20260509102547 50 292 0.0 0.0 0.00 0.00 0.00 100 1020.2
20260509102029 50 292 0.0 0.0 0.00 0.00 0.00 100 1020.2
20260509101530 50 292 0.0 0.0 0.00 0.00 0.00 100 1020.2
20260509101030 50 292 0.0 0.0 0.00 0.00 0.00 100 1020.2
20260509100530 50 292 0.0 0.0 0.00 0.00 0.00 100 1020.2
20260509095530 51 292 0.0 0.0 0.00 0.00 0.00 100 1020.3
20260509095017 51 291 0.0 0.0 0.00 0.00 0.00 100 1020.3
20260509094518 51 291 0.0 0.0 0.00 0.00 0.00 100 1020.2
20260509094019 51 292 0.0 0.0 0.00 0.00 0.00 100 1020.2
20260509093515 51 291 0.0 0.0 0.00 0.00 0.00 100 1020.3
20260509093015 51 292 0.0 0.0 0.00 0.00 0.00 100 1020.3
20260509092513 51 292 0.0 0.0 0.00 0.00 0.00 100 1020.4
20260509092014 51 292 0.0 0.0 0.00 0.00 0.00 100 1020.4
20260509091004 52 292 0.0 0.0 0.00 0.00 0.00 100 1020.5
20260509090503 52 292 0.0 0.0 0.00 0.00 0.00 100 1020.5
20260509090002 52 292 0.0 0.0 0.00 0.00 0.00 100 1020.5
20260509085500 52 292 0.0 0.0 0.00 0.00 0.00 100 1020.5
20260509085006 53 292 0.0 0.0 0.00 0.00 0.00 100 1020.5
20260509084503 53 292 0.0 0.0 0.00 0.00 0.00 100 1020.6
20260509084002 53 292 0.0 0.0 0.00 0.00 0.00 100 1020.6
20260509083004 53 292 0.0 0.0 0.00 0.00 0.00 100 1020.7
20260509082455 53 291 0.0 0.0 0.00 0.00 0.00 100 1020.7
20260509081947 53 292 0.0 0.0 0.00 0.00 0.00 100 1020.8
20260509081443 53 292 0.0 0.0 0.00 0.00 0.00 100 1020.8
20260509080930 54 292 0.0 0.0 0.00 0.00 0.00 100 1020.9
20260509075930 54 292 0.0 0.0 0.00 0.00 0.00 100 1020.9
20260509075430 54 292 0.0 0.0 0.00 0.00 0.00 100 1020.9
20260509074929 54 292 0.0 0.0 0.00 0.00 0.00 100 1021.0
20260509074430 54 292 0.0 0.0 0.00 0.00 0.00 100 1021.0
20260509073930 54 292 0.0 0.0 0.00 0.00 0.00 100 1021.0
20260509073430 54 292 0.0 0.0 0.00 0.00 0.00 100 1021.0
20260509072930 55 291 0.0 0.0 0.00 0.00 0.00 100 1021.0
20260509072430 55 292 0.0 0.0 0.00 0.00 0.00 100 1021.0
20260509071429 55 292 0.0 0.0 0.00 0.00 0.00 100 1020.9
20260509070930 55 292 0.0 0.0 0.00 0.00 0.00 100 1020.9
20260509070423 55 292 0.0 0.0 0.00 0.00 0.00 100 1020.9
20260509065922 56 292 0.0 0.0 0.00 0.00 0.00 5 1020.9
20260509065423 56 292 0.0 0.0 0.00 0.00 0.00 10 1021.0
20260509064924 56 292 0.0 0.0 0.00 0.00 0.00 15 1020.9
20260509064422 56 292 0.0 0.0 0.00 0.00 0.00 18 1020.9
20260509063923 56 292 0.0 0.0 0.00 0.00 0.00 22 1020.9
20260509063422 56 292 0.0 0.0 0.00 0.00 0.00 26 1021.0
20260509062921 57 292 0.0 0.0 0.00 0.00 0.00 29 1021.0
20260509062423 57 292 0.0 0.0 0.00 0.00 0.00 31 1020.9
20260509061422 58 292 0.0 0.0 0.00 0.00 0.00 35 1020.9
20260509060919 58 292 0.0 0.0 0.00 0.00 0.00 35 1020.8
20260509060406 58 292 0.0 0.0 0.00 0.00 0.00 36 1020.8
20260509055402 58 292 0.0 0.0 0.00 0.00 0.00 36 1020.7
20260509053900 59 292 0.0 0.0 0.00 0.00 0.00 41 1020.7
20260509053403 59 292 0.0 0.0 0.00 0.00 0.00 42 1020.7
20260509052403 59 292 0.0 0.0 0.00 0.00 0.00 44 1020.6